| time (UTC) | temp C | wind direction | speed KPH | gust KPH | rain 1hr cm | rain 24hr cm | rain mn cm | humidity % | barometer mb |
| 20260507114955 | 5 | 276 | 8.0 | 14.5 | 0.00 | 0.03 | 0.03 | 98 | 1021.9 |
| 20260507114452 | 5 | 277 | 6.4 | 8.0 | 0.00 | 0.03 | 0.03 | 98 | 1021.7 |
| 20260507113949 | 5 | 277 | 8.0 | 11.3 | 0.00 | 0.03 | 0.03 | 98 | 1021.8 |
| 20260507113446 | 5 | 277 | 11.3 | 16.1 | 0.00 | 0.03 | 0.03 | 98 | 1021.8 |
| 20260507112944 | 5 | 274 | 14.5 | 22.5 | 0.00 | 0.03 | 0.03 | 98 | 1021.7 |
| 20260507112441 | 5 | 268 | 14.5 | 22.5 | 0.00 | 0.03 | 0.03 | 98 | 1021.6 |
| 20260507111938 | 5 | 264 | 11.3 | 14.5 | 0.00 | 0.03 | 0.03 | 98 | 1021.8 |
| 20260507111435 | 5 | 266 | 11.3 | 14.5 | 0.00 | 0.03 | 0.03 | 98 | 1021.9 |
| 20260507110931 | 5 | 308 | 11.3 | 16.1 | 0.00 | 0.03 | 0.03 | 98 | 1021.8 |
| 20260507110427 | 5 | 313 | 3.2 | 3.2 | 0.00 | 0.03 | 0.03 | 98 | 1021.7 |
| 20260507105924 | 5 | 314 | 14.5 | 19.3 | 0.00 | 0.03 | 0.03 | 98 | 1021.8 |
| 20260507105421 | 5 | 313 | 11.3 | 14.5 | 0.00 | 0.03 | 0.03 | 98 | 1021.7 |
| 20260507104918 | 5 | 310 | 8.0 | 11.3 | 0.00 | 0.03 | 0.03 | 98 | 1021.7 |
| 20260507104415 | 5 | 311 | 4.8 | 8.0 | 0.00 | 0.03 | 0.03 | 98 | 1021.7 |
| 20260507103910 | 5 | 315 | 11.3 | 14.5 | 0.00 | 0.03 | 0.03 | 98 | 1022.0 |
| 20260507103407 | 5 | 315 | 6.4 | 8.0 | 0.00 | 0.03 | 0.03 | 98 | 1021.9 |
| 20260507102903 | 5 | 314 | 19.3 | 27.4 | 0.00 | 0.03 | 0.03 | 98 | 1021.7 |
| 20260507102400 | 5 | 312 | 11.3 | 14.5 | 0.00 | 0.03 | 0.03 | 98 | 1021.9 |
| 20260507101857 | 5 | 313 | 8.0 | 11.3 | 0.00 | 0.03 | 0.03 | 98 | 1021.9 |
| 20260507101356 | 5 | 304 | 12.9 | 14.5 | 0.00 | 0.03 | 0.03 | 98 | 1021.7 |
| 20260507100854 | 5 | 317 | 9.7 | 11.3 | 0.00 | 0.03 | 0.03 | 98 | 1021.9 |
| 20260507100352 | 5 | 319 | 8.0 | 8.0 | 0.00 | 0.03 | 0.03 | 98 | 1021.8 |
| 20260507095849 | 5 | 311 | 16.1 | 16.1 | 0.00 | 0.03 | 0.03 | 98 | 1021.7 |
| 20260507095346 | 5 | 334 | 6.4 | 8.0 | 0.00 | 0.03 | 0.03 | 98 | 1021.7 |
| 20260507094843 | 4 | 341 | 4.8 | 4.8 | 0.00 | 0.03 | 0.03 | 98 | 1021.8 |
| 20260507094339 | 4 | 343 | 8.0 | 8.0 | 0.00 | 0.03 | 0.03 | 98 | 1021.8 |
| 20260507093837 | 3 | 347 | 6.4 | 8.0 | 0.00 | 0.03 | 0.03 | 98 | 1021.8 |
| 20260507093335 | 3 | 348 | 8.0 | 8.0 | 0.00 | 0.03 | 0.03 | 97 | 1021.9 |
| 20260507092833 | 3 | 349 | 4.8 | 4.8 | 0.00 | 0.03 | 0.03 | 97 | 1021.6 |
| 20260507092329 | 4 | 349 | 3.2 | 4.8 | 0.00 | 0.03 | 0.03 | 97 | 1021.7 |
| 20260507091825 | 4 | 349 | 6.4 | 8.0 | 0.00 | 0.03 | 0.03 | 97 | 1022.0 |
| 20260507091322 | 4 | 351 | 6.4 | 8.0 | 0.00 | 0.03 | 0.03 | 97 | 1021.8 |
| 20260507090817 | 4 | 351 | 3.2 | 3.2 | 0.00 | 0.03 | 0.03 | 97 | 1021.8 |
| 20260507090314 | 4 | 352 | 6.4 | 8.0 | 0.00 | 0.03 | 0.03 | 97 | 1021.9 |
| 20260507085811 | 5 | 352 | 4.8 | 4.8 | 0.00 | 0.03 | 0.03 | 97 | 1022.0 |
| 20260507085308 | 5 | 353 | 4.8 | 4.8 | 0.00 | 0.03 | 0.03 | 97 | 1021.7 |
| 20260507084805 | 5 | 354 | 3.2 | 4.8 | 0.00 | 0.03 | 0.03 | 96 | 1021.6 |
| 20260507084301 | 5 | 354 | 6.4 | 8.0 | 0.00 | 0.03 | 0.03 | 96 | 1021.5 |
| 20260507083759 | 5 | 354 | 8.0 | 11.3 | 0.00 | 0.03 | 0.03 | 96 | 1021.7 |
| 20260507083255 | 5 | 357 | 12.9 | 14.5 | 0.00 | 0.03 | 0.03 | 96 | 1021.7 |
| 20260507082751 | 5 | 358 | 9.7 | 11.3 | 0.00 | 0.03 | 0.03 | 96 | 1021.8 |
| 20260507082247 | 5 | 357 | 8.0 | 11.3 | 0.00 | 0.03 | 0.03 | 96 | 1021.7 |
| 20260507081744 | 5 | 358 | 11.3 | 14.5 | 0.00 | 0.03 | 0.03 | 96 | 1022.0 |
| 20260507081240 | 5 | 358 | 3.2 | 3.2 | 0.00 | 0.03 | 0.03 | 96 | 1021.7 |
| 20260507080737 | 5 | 359 | 0.0 | 0.0 | 0.00 | 0.03 | 0.03 | 96 | 1021.8 |
| 20260507080233 | 5 | 359 | 0.0 | 0.0 | 0.00 | 0.03 | 0.03 | 96 | 1022.0 |
| 20260507075729 | 5 | 359 | 0.0 | 0.0 | 0.00 | 0.03 | 0.03 | 96 | 1021.9 |
| 20260507075225 | 5 | 359 | 3.2 | 4.8 | 0.00 | 0.03 | 0.03 | 96 | 1021.7 |
| 20260507074722 | 5 | 359 | 3.2 | 3.2 | 0.00 | 0.03 | 0.03 | 95 | 1021.9 |
| 20260507074220 | 5 | 359 | 0.0 | 0.0 | 0.00 | 0.03 | 0.03 | 95 | 1022.1 |
| 20260507073716 | 5 | 359 | 0.0 | 0.0 | 0.00 | 0.03 | 0.03 | 95 | 1022.1 |
| 20260507073213 | 5 | 359 | 0.0 | 0.0 | 0.00 | 0.03 | 0.03 | 95 | 1022.2 |
| 20260507072711 | 5 | 359 | 3.2 | 3.2 | 0.00 | 0.03 | 0.03 | 95 | 1022.3 |
| 20260507072208 | 5 | 1 | 9.7 | 11.3 | 0.00 | 0.03 | 0.03 | 95 | 1022.3 |
| 20260507071705 | 5 | 358 | 6.4 | 8.0 | 0.00 | 0.03 | 0.03 | 95 | 1022.6 |
| 20260507071201 | 5 | 357 | 14.5 | 19.3 | 0.00 | 0.03 | 0.03 | 95 | 1022.5 |
| 20260507070659 | 5 | 352 | 12.9 | 16.1 | 0.00 | 0.03 | 0.03 | 94 | 1022.8 |
| 20260507070155 | 5 | 351 | 14.5 | 16.1 | 0.00 | 0.03 | 0.03 | 94 | 1022.9 |
| 20260507065652 | 5 | 347 | 16.1 | 22.5 | 0.00 | 0.03 | 0.03 | 94 | 1023.6 |
| 20260507065149 | 5 | 353 | 14.5 | 19.3 | 0.00 | 0.03 | 0.03 | 93 | 1023.1 |
| 20260507064646 | 5 | 348 | 19.3 | 22.5 | 0.00 | 0.03 | 0.03 | 93 | 1022.8 |
| 20260507064144 | 5 | 346 | 25.7 | 30.6 | 0.00 | 0.03 | 0.03 | 93 | 1022.9 |
| 20260507063641 | 5 | 8 | 17.7 | 22.5 | 0.00 | 0.03 | 0.03 | 92 | 1022.8 |
| 20260507063133 | 5 | 15 | 16.1 | 19.3 | 0.00 | 0.03 | 0.03 | 91 | 1023.1 |
| 20260507062630 | 5 | 359 | 14.5 | 16.1 | 0.00 | 0.03 | 0.03 | 91 | 1022.6 |
| 20260507062127 | 5 | 2 | 11.3 | 14.5 | 0.00 | 0.03 | 0.03 | 91 | 1022.5 |
| 20260507061625 | 6 | 14 | 9.7 | 11.3 | 0.00 | 0.03 | 0.03 | 90 | 1022.5 |
| 20260507061123 | 6 | 15 | 14.5 | 16.1 | 0.00 | 0.03 | 0.03 | 89 | 1022.3 |
| 20260507060621 | 6 | 25 | 12.9 | 16.1 | 0.00 | 0.03 | 0.03 | 88 | 1022.2 |
| 20260507060117 | 6 | 4 | 6.4 | 8.0 | 0.00 | 0.03 | 0.03 | 88 | 1022.1 |
| 20260507055612 | 6 | 15 | 3.2 | 4.8 | 0.00 | 0.03 | 0.03 | 86 | 1022.0 |
| 20260507055109 | 6 | 14 | 11.3 | 16.1 | 0.00 | 0.03 | 0.03 | 86 | 1022.3 |
| 20260507054604 | 6 | 12 | 11.3 | 14.5 | 0.00 | 0.03 | 0.03 | 85 | 1022.1 |
| 20260507054102 | 6 | 0 | 9.7 | 14.5 | 0.00 | 0.03 | 0.03 | 86 | 1022.1 |
| 20260507053600 | 6 | 10 | 12.9 | 16.1 | 0.00 | 0.03 | 0.03 | 85 | 1022.2 |
| 20260507053058 | 6 | 31 | 12.9 | 16.1 | 0.13 | 0.03 | 0.03 | 85 | 1021.9 |
| 20260507052556 | 6 | 30 | 9.7 | 11.3 | 0.13 | 0.03 | 0.03 | 83 | 1022.2 |
| 20260507052052 | 6 | 12 | 14.5 | 16.1 | 0.00 | 0.00 | 0.00 | 79 | 1022.1 |
| 20260507051549 | 7 | 15 | 20.9 | 24.1 | 0.00 | 0.00 | 0.00 | 74 | 1022.3 |
| 20260507051046 | 7 | 24 | 17.7 | 24.1 | 0.00 | 0.00 | 0.00 | 69 | 1022.6 |
| 20260507050543 | 7 | 19 | 16.1 | 19.3 | 0.00 | 0.00 | 0.00 | 66 | 1022.7 |
| 20260507050039 | 7 | 18 | 17.7 | 22.5 | 0.00 | 0.00 | 0.00 | 66 | 1022.3 |
| 20260507045536 | 7 | 19 | 9.7 | 11.3 | 0.00 | 0.00 | 0.00 | 66 | 1022.3 |
| 20260507045033 | 7 | 7 | 3.2 | 4.8 | 0.00 | 0.00 | 0.00 | 66 | 1022.1 |
| 20260507044530 | 7 | 355 | 4.8 | 8.0 | 0.00 | 0.00 | 0.00 | 66 | 1022.0 |
| 20260507044027 | 7 | 6 | 8.0 | 11.3 | 0.00 | 0.00 | 0.00 | 66 | 1021.8 |
| 20260507043523 | 8 | 11 | 11.3 | 22.5 | 0.00 | 0.00 | 0.00 | 65 | 1022.0 |
| 20260507043020 | 8 | 347 | 6.4 | 8.0 | 0.00 | 0.00 | 0.00 | 64 | 1022.0 |
| 20260507042516 | 8 | 12 | 6.4 | 8.0 | 0.00 | 0.00 | 0.00 | 63 | 1022.2 |
| 20260507042012 | 8 | 4 | 17.7 | 22.5 | 0.00 | 0.00 | 0.00 | 63 | 1022.3 |
| 20260507041509 | 8 | 19 | 20.9 | 30.6 | 0.00 | 0.00 | 0.00 | 63 | 1022.1 |
| 20260507041006 | 8 | 351 | 6.4 | 11.3 | 0.00 | 0.00 | 0.00 | 62 | 1022.0 |
| 20260507040502 | 8 | 17 | 12.9 | 24.1 | 0.00 | 0.00 | 0.00 | 62 | 1022.0 |
| 20260507035957 | 8 | 20 | 14.5 | 16.1 | 0.00 | 0.00 | 0.00 | 61 | 1022.1 |
| 20260507035454 | 8 | 33 | 12.9 | 19.3 | 0.00 | 0.00 | 0.00 | 61 | 1022.0 |
| 20260507034951 | 8 | 42 | 12.9 | 16.1 | 0.00 | 0.00 | 0.00 | 61 | 1021.9 |
| 20260507034448 | 8 | 55 | 9.7 | 14.5 | 0.00 | 0.00 | 0.00 | 61 | 1021.8 |
| 20260507033946 | 8 | 2 | 14.5 | 19.3 | 0.00 | 0.00 | 0.00 | 61 | 1021.8 |
| 20260507033443 | 8 | 17 | 24.1 | 30.6 | 0.00 | 0.00 | 0.00 | 61 | 1021.8 |
| 20260507032940 | 9 | 44 | 20.9 | 33.8 | 0.00 | 0.00 | 0.00 | 60 | 1021.7 |
| 20260507032437 | 9 | 7 | 16.1 | 24.1 | 0.00 | 0.00 | 0.00 | 60 | 1021.6 |
| 20260507031933 | 9 | 21 | 14.5 | 22.5 | 0.00 | 0.00 | 0.00 | 60 | 1021.5 |
| 20260507031430 | 9 | 55 | 11.3 | 16.1 | 0.00 | 0.00 | 0.00 | 60 | 1021.5 |
| 20260507030927 | 9 | 40 | 17.7 | 22.5 | 0.00 | 0.00 | 0.00 | 59 | 1021.3 |
| 20260507030424 | 10 | 33 | 27.4 | 35.4 | 0.00 | 0.00 | 0.00 | 59 | 1021.1 |
| 20260507025921 | 10 | 35 | 25.7 | 33.8 | 0.00 | 0.00 | 0.00 | 60 | 1021.2 |
| 20260507025418 | 10 | 8 | 16.1 | 24.1 | 0.00 | 0.00 | 0.00 | 60 | 1021.0 |
| 20260507024916 | 10 | 37 | 17.7 | 27.4 | 0.00 | 0.00 | 0.00 | 59 | 1020.9 |
| 20260507024413 | 10 | 33 | 24.1 | 33.8 | 0.00 | 0.00 | 0.00 | 59 | 1020.9 |
| 20260507023908 | 10 | 22 | 20.9 | 27.4 | 0.00 | 0.00 | 0.00 | 59 | 1020.7 |
| 20260507023406 | 10 | 14 | 16.1 | 19.3 | 0.00 | 0.00 | 0.00 | 58 | 1020.8 |
| 20260507022903 | 10 | 356 | 24.1 | 33.8 | 0.00 | 0.00 | 0.00 | 58 | 1020.8 |
| 20260507022400 | 10 | 21 | 27.4 | 35.4 | 0.00 | 0.00 | 0.00 | 58 | 1020.3 |
| 20260507021856 | 10 | 18 | 11.3 | 19.3 | 0.00 | 0.00 | 0.00 | 58 | 1020.0 |
| 20260507021351 | 10 | 94 | 6.4 | 11.3 | 0.00 | 0.00 | 0.00 | 58 | 1019.8 |
| 20260507020849 | 10 | 13 | 16.1 | 27.4 | 0.00 | 0.00 | 0.00 | 57 | 1019.8 |
| 20260507020346 | 11 | 7 | 16.1 | 19.3 | 0.00 | 0.00 | 0.00 | 57 | 1019.3 |
| 20260507015842 | 11 | 350 | 12.9 | 19.3 | 0.00 | 0.00 | 0.00 | 57 | 1019.2 |
| 20260507015341 | 11 | 9 | 16.1 | 24.1 | 0.00 | 0.00 | 0.00 | 57 | 1019.0 |
| 20260507014837 | 11 | 83 | 11.3 | 19.3 | 0.00 | 0.00 | 0.00 | 56 | 1019.0 |
| 20260507014334 | 11 | 9 | 14.5 | 24.1 | 0.00 | 0.00 | 0.00 | 56 | 1018.8 |
| 20260507013830 | 11 | 45 | 14.5 | 19.3 | 0.00 | 0.00 | 0.00 | 56 | 1018.7 |
| 20260507013327 | 11 | 27 | 17.7 | 24.1 | 0.00 | 0.00 | 0.00 | 55 | 1018.5 |
| 20260507012825 | 11 | 3 | 19.3 | 27.4 | 0.00 | 0.00 | 0.00 | 54 | 1018.1 |
| 20260507012320 | 12 | 33 | 8.0 | 11.3 | 0.00 | 0.00 | 0.00 | 54 | 1018.1 |
| 20260507011818 | 12 | 81 | 9.7 | 19.3 | 0.00 | 0.00 | 0.00 | 54 | 1018.1 |
| 20260507011314 | 12 | 10 | 3.2 | 4.8 | 0.00 | 0.00 | 0.00 | 54 | 1018.0 |
| 20260507010814 | 12 | 25 | 6.4 | 8.0 | 0.00 | 0.00 | 0.00 | 54 | 1017.6 |
| 20260507010310 | 12 | 80 | 8.0 | 11.3 | 0.00 | 0.00 | 0.00 | 54 | 1017.4 |
| 20260507005807 | 12 | 0 | 9.7 | 14.5 | 0.00 | 0.00 | 0.00 | 53 | 1017.4 |
| 20260507005305 | 13 | 37 | 12.9 | 22.5 | 0.00 | 0.00 | 0.00 | 52 | 1017.5 |
| 20260507004800 | 13 | 74 | 11.3 | 16.1 | 0.00 | 0.00 | 0.00 | 52 | 1017.4 |
| 20260507004258 | 13 | 49 | 3.2 | 4.8 | 0.00 | 0.00 | 0.00 | 51 | 1017.2 |
| 20260507003754 | 12 | 101 | 4.8 | 8.0 | 0.00 | 0.00 | 0.00 | 52 | 1017.0 |
| 20260507003249 | 12 | 34 | 9.7 | 16.1 | 0.00 | 0.00 | 0.00 | 53 | 1017.2 |
| 20260507002746 | 12 | 65 | 9.7 | 16.1 | 0.00 | 0.00 | 0.00 | 52 | 1017.2 |
| 20260507002242 | 13 | 41 | 1.6 | 3.2 | 0.00 | 0.00 | 0.00 | 51 | 1017.1 |
| 20260507001739 | 13 | 7 | 8.0 | 11.3 | 0.00 | 0.00 | 0.00 | 50 | 1017.2 |
| 20260507001236 | 13 | 82 | 4.8 | 8.0 | 0.00 | 0.00 | 0.00 | 50 | 1017.1 |
| 20260507000732 | 13 | 60 | 3.2 | 4.8 | 0.00 | 0.00 | 0.00 | 51 | 1016.9 |
| 20260507000228 | 12 | 70 | 1.6 | 3.2 | 0.00 | 0.00 | 0.00 | 54 | 1017.0 |
| 20260506235725 | 12 | 102 | 6.4 | 8.0 | 0.00 | 0.00 | 0.00 | 53 | 1016.9 |
| 20260506235221 | 13 | 61 | 4.8 | 11.3 | 0.00 | 0.00 | 0.00 | 53 | 1016.9 |
| 20260506234718 | 13 | 2 | 3.2 | 4.8 | 0.00 | 0.00 | 0.00 | 51 | 1016.7 |
| 20260506234215 | 13 | 103 | 9.7 | 14.5 | 0.00 | 0.00 | 0.00 | 50 | 1016.7 |
| 20260506233713 | 13 | 99 | 12.9 | 16.1 | 0.00 | 0.00 | 0.00 | 52 | 1016.5 |
| 20260506233209 | 13 | 7 | 3.2 | 3.2 | 0.00 | 0.00 | 0.00 | 53 | 1016.9 |
| 20260506232706 | 12 | 53 | 3.2 | 4.8 | 0.00 | 0.00 | 0.00 | 54 | 1016.7 |
| 20260506232200 | 13 | 106 | 19.3 | 24.1 | 0.00 | 0.00 | 0.00 | 52 | 1016.9 |
| 20260506231658 | 14 | 76 | 19.3 | 30.6 | 0.00 | 0.00 | 0.00 | 49 | 1016.7 |
| 20260506231156 | 15 | 94 | 11.3 | 16.1 | 0.00 | 0.00 | 0.00 | 49 | 1016.7 |
| 20260506230652 | 14 | 94 | 9.7 | 19.3 | 0.00 | 0.00 | 0.00 | 50 | 1016.9 |
| 20260506230150 | 14 | 138 | 8.0 | 14.5 | 0.00 | 0.00 | 0.00 | 50 | 1016.7 |
| 20260506225646 | 14 | 30 | 6.4 | 8.0 | 0.00 | 0.00 | 0.00 | 50 | 1016.9 |
| 20260506225143 | 13 | 100 | 6.4 | 8.0 | 0.00 | 0.00 | 0.00 | 50 | 1017.1 |
| 20260506224639 | 14 | 72 | 6.4 | 11.3 | 0.00 | 0.00 | 0.00 | 50 | 1016.8 |
| 20260506224136 | 13 | 12 | 4.8 | 4.8 | 0.00 | 0.00 | 0.00 | 52 | 1016.6 |
| 20260506223632 | 12 | 2 | 3.2 | 4.8 | 0.00 | 0.00 | 0.00 | 54 | 1017.0 |
| 20260506223128 | 12 | 78 | 6.4 | 8.0 | 0.00 | 0.00 | 0.00 | 55 | 1016.9 |
| 20260506222626 | 12 | 174 | 8.0 | 11.3 | 0.00 | 0.00 | 0.00 | 54 | 1017.1 |
| 20260506222122 | 13 | 41 | 11.3 | 14.5 | 0.00 | 0.00 | 0.00 | 52 | 1017.0 |
| 20260506221620 | 14 | 331 | 1.6 | 4.8 | 0.00 | 0.00 | 0.00 | 50 | 1017.1 |
| 20260506221118 | 14 | 4 | 9.7 | 14.5 | 0.00 | 0.00 | 0.00 | 51 | 1017.2 |
| 20260506220614 | 13 | 25 | 1.6 | 3.2 | 0.00 | 0.00 | 0.00 | 53 | 1017.2 |
| 20260506220109 | 12 | 104 | 9.7 | 11.3 | 0.00 | 0.00 | 0.00 | 56 | 1017.5 |
| 20260506215606 | 12 | 92 | 17.7 | 22.5 | 0.00 | 0.00 | 0.00 | 56 | 1017.4 |
| 20260506215101 | 12 | 106 | 14.5 | 22.5 | 0.00 | 0.00 | 0.00 | 55 | 1017.1 |
| 20260506214559 | 12 | 82 | 19.3 | 22.5 | 0.00 | 0.00 | 0.00 | 55 | 1017.2 |
| 20260506214056 | 13 | 49 | 9.7 | 14.5 | 0.00 | 0.00 | 0.00 | 54 | 1017.4 |
| 20260506213554 | 14 | 9 | 4.8 | 4.8 | 0.00 | 0.00 | 0.00 | 51 | 1017.5 |
| 20260506213051 | 13 | 69 | 4.8 | 11.3 | 0.00 | 0.00 | 0.00 | 53 | 1017.5 |
| 20260506212547 | 13 | 344 | 1.6 | 3.2 | 0.00 | 0.00 | 0.00 | 54 | 1017.0 |
| 20260506212042 | 12 | 16 | 0.0 | 0.0 | 0.00 | 0.00 | 0.00 | 57 | 1017.4 |
| 20260506211539 | 12 | 108 | 8.0 | 11.3 | 0.00 | 0.00 | 0.00 | 56 | 1017.6 |
| 20260506211036 | 12 | 157 | 14.5 | 19.3 | 0.00 | 0.00 | 0.00 | 57 | 1017.4 |
| 20260506210532 | 13 | 136 | 6.4 | 8.0 | 0.00 | 0.00 | 0.00 | 54 | 1017.5 |
| 20260506210029 | 13 | 27 | 8.0 | 11.3 | 0.00 | 0.00 | 0.00 | 54 | 1017.5 |
| 20260506205526 | 12 | 322 | 3.2 | 4.8 | 0.00 | 0.00 | 0.00 | 56 | 1017.4 |
| 20260506205021 | 12 | 354 | 16.1 | 16.1 | 0.00 | 0.00 | 0.00 | 56 | 1017.6 |
| 20260506204519 | 11 | 102 | 6.4 | 11.3 | 0.00 | 0.00 | 0.00 | 59 | 1017.9 |
| 20260506204016 | 12 | 90 | 14.5 | 19.3 | 0.00 | 0.00 | 0.00 | 59 | 1017.7 |
| 20260506203514 | 12 | 129 | 11.3 | 19.3 | 0.00 | 0.00 | 0.00 | 58 | 1017.8 |
| 20260506203010 | 12 | 119 | 14.5 | 16.1 | 0.00 | 0.00 | 0.00 | 55 | 1017.6 |
| 20260506202508 | 11 | 58 | 3.2 | 4.8 | 0.00 | 0.00 | 0.00 | 58 | 1017.7 |
| 20260506202004 | 11 | 93 | 8.0 | 11.3 | 0.00 | 0.00 | 0.00 | 59 | 1017.9 |
| 20260506201502 | 11 | 171 | 12.9 | 16.1 | 0.00 | 0.00 | 0.00 | 62 | 1017.9 |
| 20260506200958 | 10 | 80 | 17.7 | 22.5 | 0.00 | 0.00 | 0.00 | 63 | 1017.9 |
| 20260506200455 | 12 | 146 | 11.3 | 14.5 | 0.00 | 0.00 | 0.00 | 59 | 1018.2 |
| 20260506195951 | 12 | 11 | 12.9 | 16.1 | 0.00 | 0.00 | 0.00 | 59 | 1018.0 |
| 20260506195448 | 11 | 104 | 8.0 | 8.0 | 0.00 | 0.00 | 0.00 | 60 | 1018.1 |
| 20260506194945 | 10 | 336 | 3.2 | 4.8 | 0.00 | 0.00 | 0.00 | 65 | 1018.2 |
| 20260506194442 | 10 | 42 | 14.5 | 19.3 | 0.00 | 0.00 | 0.00 | 66 | 1018.0 |
| 20260506193939 | 11 | 30 | 3.2 | 4.8 | 0.00 | 0.00 | 0.00 | 63 | 1017.9 |
| 20260506193436 | 10 | 118 | 9.7 | 14.5 | 0.00 | 0.00 | 0.00 | 65 | 1018.4 |
| 20260506192932 | 10 | 81 | 9.7 | 14.5 | 0.00 | 0.00 | 0.00 | 66 | 1018.1 |
| 20260506192429 | 9 | 104 | 11.3 | 16.1 | 0.00 | 0.00 | 0.00 | 67 | 1018.1 |
| 20260506191926 | 10 | 65 | 8.0 | 19.3 | 0.00 | 0.00 | 0.00 | 67 | 1018.1 |
| 20260506191422 | 10 | 19 | 3.2 | 4.8 | 0.00 | 0.00 | 0.00 | 64 | 1017.9 |
| 20260506190919 | 10 | 88 | 12.9 | 19.3 | 0.00 | 0.00 | 0.00 | 66 | 1018.2 |
| 20260506190416 | 10 | 124 | 6.4 | 8.0 | 0.00 | 0.00 | 0.00 | 67 | 1018.1 |
| 20260506185913 | 9 | 23 | 4.8 | 8.0 | 0.00 | 0.00 | 0.00 | 68 | 1018.0 |
| 20260506185410 | 9 | 130 | 12.9 | 16.1 | 0.00 | 0.00 | 0.00 | 68 | 1018.4 |
| 20260506184907 | 10 | 64 | 6.4 | 8.0 | 0.00 | 0.00 | 0.00 | 68 | 1018.4 |
| 20260506184404 | 8 | 53 | 6.4 | 8.0 | 0.00 | 0.00 | 0.00 | 69 | 1018.6 |
| 20260506183901 | 8 | 11 | 8.0 | 11.3 | 0.00 | 0.00 | 0.00 | 70 | 1018.4 |
| 20260506183356 | 8 | 33 | 14.5 | 22.5 | 0.00 | 0.00 | 0.00 | 70 | 1018.6 |
| 20260506182854 | 8 | 51 | 11.3 | 14.5 | 0.00 | 0.00 | 0.00 | 70 | 1018.6 |
| 20260506182351 | 8 | 101 | 11.3 | 19.3 | 0.00 | 0.00 | 0.00 | 71 | 1018.8 |
| 20260506181848 | 8 | 102 | 11.3 | 14.5 | 0.00 | 0.00 | 0.00 | 71 | 1018.7 |
| 20260506181346 | 8 | 74 | 4.8 | 11.3 | 0.00 | 0.00 | 0.00 | 71 | 1018.8 |
| 20260506180843 | 8 | 139 | 9.7 | 11.3 | 0.00 | 0.00 | 0.00 | 70 | 1018.8 |
| 20260506180339 | 8 | 20 | 6.4 | 8.0 | 0.00 | 0.00 | 0.00 | 70 | 1018.7 |
| 20260506175835 | 8 | 117 | 8.0 | 11.3 | 0.00 | 0.00 | 0.00 | 70 | 1018.5 |
| 20260506175332 | 8 | 149 | 16.1 | 22.5 | 0.00 | 0.00 | 0.00 | 71 | 1018.4 |
| 20260506174830 | 8 | 3 | 4.8 | 8.0 | 0.00 | 0.00 | 0.00 | 71 | 1018.8 |
| 20260506174327 | 8 | 56 | 3.2 | 8.0 | 0.00 | 0.00 | 0.00 | 70 | 1018.5 |
| 20260506173824 | 8 | 80 | 9.7 | 16.1 | 0.00 | 0.00 | 0.00 | 69 | 1018.7 |
| 20260506173321 | 8 | 63 | 8.0 | 14.5 | 0.00 | 0.00 | 0.00 | 69 | 1018.8 |
| 20260506172818 | 8 | 67 | 8.0 | 11.3 | 0.00 | 0.00 | 0.00 | 70 | 1018.5 |
| 20260506172315 | 8 | 23 | 6.4 | 8.0 | 0.00 | 0.00 | 0.00 | 72 | 1018.7 |
| 20260506171812 | 8 | 72 | 4.8 | 8.0 | 0.00 | 0.00 | 0.00 | 71 | 1018.5 |
| 20260506171309 | 8 | 92 | 9.7 | 14.5 | 0.00 | 0.00 | 0.00 | 72 | 1018.6 |
| 20260506170807 | 8 | 54 | 4.8 | 8.0 | 0.00 | 0.00 | 0.00 | 71 | 1018.5 |
| 20260506170303 | 8 | 129 | 17.7 | 22.5 | 0.00 | 0.00 | 0.00 | 72 | 1018.5 |
| 20260506165802 | 8 | 71 | 14.5 | 19.3 | 0.00 | 0.00 | 0.00 | 70 | 1018.6 |
| 20260506165259 | 8 | 60 | 9.7 | 14.5 | 0.00 | 0.00 | 0.00 | 71 | 1018.4 |
| 20260506164755 | 8 | 40 | 11.3 | 14.5 | 0.00 | 0.00 | 0.00 | 71 | 1018.5 |
| 20260506164252 | 8 | 94 | 9.7 | 11.3 | 0.00 | 0.00 | 0.00 | 70 | 1018.5 |
| 20260506163749 | 8 | 80 | 9.7 | 19.3 | 0.00 | 0.00 | 0.00 | 70 | 1018.4 |
| 20260506163244 | 8 | 78 | 9.7 | 11.3 | 0.00 | 0.00 | 0.00 | 69 | 1018.2 |
| 20260506162740 | 8 | 129 | 11.3 | 14.5 | 0.00 | 0.00 | 0.00 | 70 | 1018.0 |
| 20260506162238 | 7 | 121 | 6.4 | 11.3 | 0.00 | 0.00 | 0.00 | 71 | 1018.4 |
| 20260506161730 | 7 | 101 | 6.4 | 11.3 | 0.00 | 0.00 | 0.00 | 71 | 1018.1 |
| 20260506161227 | 8 | 162 | 11.3 | 16.1 | 0.00 | 0.00 | 0.00 | 70 | 1018.1 |
| 20260506160724 | 8 | 118 | 8.0 | 14.5 | 0.00 | 0.00 | 0.00 | 70 | 1018.0 |
| 20260506160221 | 7 | 115 | 3.2 | 4.8 | 0.00 | 0.00 | 0.00 | 71 | 1017.8 |
| 20260506155719 | 7 | 82 | 4.8 | 4.8 | 0.00 | 0.00 | 0.00 | 71 | 1017.9 |
| 20260506155216 | 7 | 85 | 12.9 | 16.1 | 0.00 | 0.00 | 0.00 | 71 | 1017.9 |
| 20260506153318 | 7 | 114 | 11.3 | 16.1 | 0.00 | 0.00 | 0.00 | 71 | 1017.7 |
| 20260506152815 | 7 | 89 | 11.3 | 16.1 | 0.00 | 0.00 | 0.00 | 72 | 1017.5 |
| 20260506152312 | 7 | 116 | 11.3 | 14.5 | 0.00 | 0.00 | 0.00 | 73 | 1017.6 |
| 20260506151810 | 7 | 146 | 11.3 | 14.5 | 0.00 | 0.00 | 0.00 | 73 | 1017.5 |
| 20260506151307 | 7 | 105 | 14.5 | 16.1 | 0.00 | 0.00 | 0.00 | 73 | 1017.6 |
| 20260506150804 | 7 | 103 | 6.4 | 14.5 | 0.00 | 0.00 | 0.00 | 72 | 1017.6 |
| 20260506150304 | 7 | 123 | 12.9 | 16.1 | 0.00 | 0.00 | 0.00 | 72 | 1017.5 |
| 20260506145758 | 7 | 72 | 0.0 | 3.2 | 0.00 | 0.00 | 0.00 | 73 | 1017.2 |
| 20260506145254 | 6 | 79 | 4.8 | 8.0 | 0.00 | 0.00 | 0.00 | 74 | 1017.0 |
| 20260506144752 | 6 | 113 | 6.4 | 8.0 | 0.00 | 0.00 | 0.00 | 74 | 1017.2 |
| 20260506144248 | 7 | 159 | 8.0 | 8.0 | 0.00 | 0.00 | 0.00 | 74 | 1016.8 |
| 20260506143746 | 6 | 88 | 4.8 | 8.0 | 0.00 | 0.00 | 0.00 | 74 | 1016.8 |
| 20260506143243 | 6 | 117 | 6.4 | 8.0 | 0.00 | 0.00 | 0.00 | 74 | 1016.7 |
| 20260506142742 | 6 | 52 | 14.5 | 33.8 | 0.00 | 0.00 | 0.00 | 74 | 1016.6 |
| 20260506142239 | 6 | 130 | 14.5 | 19.3 | 0.00 | 0.00 | 0.00 | 75 | 1016.6 |
| 20260506141738 | 6 | 131 | 9.7 | 16.1 | 0.00 | 0.00 | 0.00 | 76 | 1016.6 |
| 20260506141235 | 6 | 90 | 14.5 | 16.1 | 0.00 | 0.00 | 0.00 | 75 | 1016.7 |
| 20260506140732 | 6 | 144 | 11.3 | 14.5 | 0.00 | 0.00 | 0.00 | 76 | 1016.6 |
| 20260506140229 | 6 | 87 | 11.3 | 16.1 | 0.00 | 0.00 | 0.00 | 77 | 1016.7 |
| 20260506135726 | 6 | 159 | 17.7 | 27.4 | 0.00 | 0.00 | 0.00 | 77 | 1016.6 |
| 20260506135222 | 6 | 122 | 12.9 | 16.1 | 0.00 | 0.00 | 0.00 | 77 | 1016.6 |
| 20260506134719 | 6 | 83 | 8.0 | 11.3 | 0.00 | 0.00 | 0.00 | 77 | 1017.1 |
| 20260506134215 | 6 | 106 | 9.7 | 14.5 | 0.00 | 0.00 | 0.00 | 77 | 1016.7 |
| 20260506133713 | 6 | 20 | 16.1 | 30.6 | 0.00 | 0.00 | 0.00 | 76 | 1016.6 |
| 20260506133209 | 6 | 110 | 20.9 | 30.6 | 0.00 | 0.00 | 0.00 | 77 | 1016.6 |
| 20260506132707 | 6 | 97 | 14.5 | 22.5 | 0.00 | 0.00 | 0.00 | 77 | 1016.8 |
| 20260506132203 | 6 | 64 | 11.3 | 14.5 | 0.00 | 0.00 | 0.00 | 77 | 1016.8 |
| 20260506131701 | 6 | 143 | 11.3 | 16.1 | 0.00 | 0.00 | 0.00 | 76 | 1017.2 |
| 20260506131157 | 6 | 100 | 3.2 | 4.8 | 0.00 | 0.00 | 0.00 | 76 | 1017.2 |
| 20260506130654 | 6 | 86 | 3.2 | 3.2 | 0.00 | 0.00 | 0.00 | 76 | 1017.4 |
| 20260506130151 | 6 | 97 | 8.0 | 8.0 | 0.00 | 0.00 | 0.00 | 77 | 1017.2 |
| 20260506125649 | 6 | 70 | 14.5 | 16.1 | 0.00 | 0.00 | 0.00 | 76 | 1017.1 |
| 20260506125147 | 6 | 125 | 14.5 | 24.1 | 0.00 | 0.00 | 0.00 | 77 | 1017.4 |
| 20260506124645 | 6 | 133 | 11.3 | 16.1 | 0.00 | 0.00 | 0.00 | 76 | 1017.4 |
| 20260506124142 | 6 | 92 | 3.2 | 3.2 | 0.00 | 0.00 | 0.00 | 76 | 1017.2 |
| 20260506123639 | 6 | 84 | 12.9 | 19.3 | 0.00 | 0.00 | 0.00 | 76 | 1017.4 |
| 20260506123133 | 6 | 113 | 9.7 | 16.1 | 0.00 | 0.00 | 0.00 | 76 | 1017.1 |
| 20260506122629 | 6 | 151 | 1.6 | 4.8 | 0.00 | 0.00 | 0.00 | 75 | 1017.1 |
| 20260506122127 | 6 | 92 | 9.7 | 16.1 | 0.00 | 0.00 | 0.00 | 75 | 1016.8 |
| 20260506121624 | 5 | 108 | 8.0 | 11.3 | 0.00 | 0.00 | 0.00 | 74 | 1016.9 |
| 20260506121120 | 5 | 140 | 4.8 | 8.0 | 0.00 | 0.00 | 0.00 | 75 | 1016.6 |
| 20260506120618 | 5 | 113 | 8.0 | 8.0 | 0.00 | 0.00 | 0.00 | 75 | 1016.6 |
| 20260506120115 | 5 | 79 | 12.9 | 16.1 | 0.00 | 0.00 | 0.00 | 75 | 1016.1 |
| 20260506115614 | 5 | 127 | 16.1 | 19.3 | 0.00 | 0.00 | 0.00 | 75 | 1016.2 |